QPF
0.00 0.00 0.00 0.00 0.00 0.00 0.00 0.00 0.00 0.00 0.00 0.00 0.00 0.00 0.00 0.00 0.00 0.00 0.00 0.00 0.00 0.00 0.00 0.00 0.00 0.01 0.03 0.03 0.03 0.02 0.00 0.00 0.01 0.03 0.05 0.10 0.06 0.00 0.00 0.00 0.00 0.00 0.00 0.00 0.00 0.00 0.00 0.00 0.00
0.00 0.00 0.00 0.00 0.00 0.00 0.00 0.00 0.00 0.00 0.00 0.00 0.00 0.00 0.00 0.00 0.00 0.00 0.00 0.00 0.00 0.00 0.00 0.00 0.00 0.00 0.01 0.06 0.05 0.05 0.02 0.02 0.06 0.05 0.03 0.08 0.17 0.06 0.00 0.00 0.00 0.00 0.00 0.00 0.00 0.00 0.00 0.00 0.00
0.00 0.00 0.00 0.00 0.00 0.00 0.00 0.00 0.00 0.00 0.00 0.00 0.00 0.00 0.00 0.00 0.00 0.00 0.00 0.00 0.00 0.00 0.00 0.00 0.00 0.00 0.00 0.03 0.09 0.07 0.07 0.05 0.04 0.05 0.04 0.04 0.13 0.17 0.05 0.00 0.00 0.00 0.00 0.00 0.00 0.00 0.00 0.00 0.01
0.00 0.00 0.00 0.00 0.00 0.00 0.00 0.00 0.00 0.00 0.00 0.00 0.00 0.00 0.00 0.00 0.00 0.00 0.00 0.00 0.00 0.00 0.00 0.00 0.00 0.00 0.00 0.00 0.07 0.11 0.08 0.07 0.07 0.07 0.06 0.04 0.04 0.10 0.12 0.07 0.01 0.00 0.00 0.00 0.00 0.00 0.00 0.00 0.00
0.00 0.00 0.00 0.00 0.00 0.00 0.00 0.00 0.00 0.00 0.00 0.00 0.00 0.00 0.00 0.00 0.00 0.00 0.00 0.00 0.00 0.00 0.00 0.00 0.00 0.00 0.00 0.00 0.01 0.05 0.08 0.06 0.07 0.06 0.07 0.05 0.05 0.06 0.10 0.13 0.05 0.00 0.00 0.00 0.00 0.00 0.00 0.00 0.00
0.00 0.00 0.00 0.00 0.00 0.00 0.00 0.00 0.00 0.00 0.00 0.00 0.00 0.00 0.00 0.00 0.00 0.00 0.00 0.00 0.00 0.00 0.00 0.00 0.00 0.00 0.00 0.00 0.01 0.03 0.02 0.06 0.09 0.05 0.06 0.05 0.03 0.03 0.06 0.15 0.09 0.02 0.00 0.00 0.00 0.00 0.00 0.00 0.00
0.00 0.00 0.00 0.00 0.00 0.00 0.00 0.00 0.00 0.00 0.00 0.00 0.00 0.00 0.00 0.00 0.00 0.00 0.00 0.00 0.00 0.00 0.00 0.00 0.00 0.00 0.00 0.00 0.00 0.01 0.02 0.03 0.07 0.09 0.07 0.04 0.02 0.00 0.02 0.07 0.06 0.02 0.00 0.00 0.00 0.00 0.00 0.00 0.00
0.00 0.00 0.00 0.00 0.00 0.00 0.00 0.00 0.00 0.00 0.00 0.00 0.00 0.00 0.00 0.00 0.00 0.00 0.00 0.00 0.00 0.00 0.00 0.00 0.00 0.00 0.00 0.00 0.00 0.01 0.02 0.02 0.05 0.37 0.22 0.06 0.02 0.00 0.00 0.00 0.02 0.01 0.00 0.01 0.00 0.00 0.00 0.00 0.00
0.00 0.00 0.00 0.00 0.00 0.00 0.00 0.00 0.00 0.00 0.00 0.00 0.00 0.00 0.00 0.00 0.00 0.00 0.00 0.00 0.00 0.00 0.00 0.00 0.00 0.00 0.00 0.00 0.00 0.00 0.01 0.07 0.12 0.43 0.44 0.21 0.09 0.05 0.00 0.00 0.00 0.00 0.00 0.00 0.00 0.00 0.00 0.00 0.00
0.00 0.00 0.00 0.00 0.00 0.00 0.00 0.00 0.00 0.00 0.00 0.00 0.00 0.00 0.00 0.00 0.00 0.00 0.00 0.00 0.00 0.00 0.00 0.00 0.00 0.00 0.00 0.00 0.00 0.00 0.00 0.00 0.01 0.03 0.31 0.27 0.15 0.16 0.04 0.02 0.01 0.01 0.00 0.00 0.00 0.00 0.00 0.00 0.00
0.00 0.00 0.00 0.00 0.00 0.00 0.00 0.00 0.00 0.00 0.00 0.00 0.00 0.00 0.00 0.00 0.00 0.00 0.00 0.00 0.00 0.00 0.00 0.00 0.00 0.00 0.00 0.00 0.00 0.00 0.00 0.00 0.00 0.02 0.18 0.34 0.26 0.25 0.16 0.08 0.02 0.02 0.00 0.00 0.00 0.00 0.00 0.00 0.00
0.00 0.00 0.00 0.00 0.00 0.00 0.00 0.00 0.00 0.00 0.00 0.00 0.00 0.00 0.00 0.00 0.00 0.00 0.00 0.00 0.00 0.00 0.00 0.00 0.00 0.00 0.00 0.00 0.00 0.00 0.00 0.00 0.00 0.00 0.02 0.08 0.10 0.16 0.16 0.10 0.05 0.01 0.00 0.00 0.00 0.00 0.00 0.00 0.00
0.00 0.00 0.00 0.00 0.00 0.00 0.00 0.00 0.00 0.00 0.00 0.00 0.00 0.00 0.00 0.00 0.00 0.00 0.00 0.00 0.00 0.00 0.00 0.00 0.00 0.00 0.00 0.00 0.00 0.00 0.00 0.00 0.00 0.00 0.00 0.01 0.06 0.12 0.12 0.10 0.06 0.03 0.01 0.00 0.00 0.00 0.00 0.00 0.00
0.00 0.00 0.00 0.00 0.00 0.00 0.00 0.00 0.00 0.00 0.00 0.00 0.00 0.00 0.00 0.00 0.00 0.00 0.00 0.00 0.00 0.00 0.00 0.00 0.00 0.00 0.00 0.00 0.00 0.00 0.00 0.00 0.00 0.00 0.00 0.00 0.04 0.13 0.18 0.11 0.04 0.01 0.01 0.01 0.00 0.00 0.00 0.00 0.00
0.00 0.00 0.00 0.00 0.00 0.00 0.00 0.00 0.00 0.00 0.00 0.00 0.00 0.00 0.00 0.00 0.00 0.00 0.00 0.00 0.00 0.00 0.00 0.00 0.00 0.00 0.00 0.00 0.00 0.00 0.00 0.00 0.00 0.00 0.00 0.00 0.01 0.05 0.16 0.15 0.05 0.03 0.02 0.02 0.01 0.00 0.00 0.00 0.00
0.00 0.00 0.00 0.00 0.00 0.00 0.00 0.00 0.00 0.00 0.00 0.00 0.00 0.00 0.00 0.00 0.00 0.00 0.00 0.00 0.00 0.00 0.00 0.00 0.00 0.00 0.00 0.00 0.00 0.00 0.00 0.00 0.00 0.00 0.00 0.00 0.00 0.02 0.09 0.15 0.05 0.03 0.04 0.01 0.01 0.00 0.00 0.00 0.00
0.00 0.00 0.00 0.00 0.00 0.00 0.00 0.00 0.00 0.00 0.00 0.00 0.00 0.00 0.00 0.00 0.00 0.00 0.00 0.00 0.00 0.00 0.00 0.00 0.00 0.00 0.00 0.00 0.00 0.00 0.00 0.00 0.00 0.00 0.00 0.00 0.00 0.01 0.05 0.11 0.08 0.04 0.03 0.01 0.00 0.00 0.00 0.00 0.00
0.00 0.00 0.00 0.00 0.00 0.00 0.00 0.00 0.00 0.00 0.00 0.00 0.00 0.00 0.00 0.00 0.00 0.00 0.00 0.00 0.00 0.00 0.00 0.00 0.00 0.00 0.00 0.00 0.00 0.00 0.00 0.00 0.00 0.00 0.00 0.00 0.00 0.00 0.03 0.10 0.13 0.04 0.04 0.01 0.01 0.01 0.00 0.00 0.00
0.00 0.00 0.00 0.00 0.00 0.00 0.00 0.00 0.00 0.00 0.00 0.00 0.00 0.00 0.00 0.00 0.00 0.00 0.00 0.00 0.00 0.00 0.00 0.00 0.00 0.00 0.00 0.00 0.00 0.00 0.00 0.00 0.00 0.00 0.00 0.00 0.00 0.00 0.02 0.10 0.13 0.05 0.01 0.00 0.02 0.01 0.00 0.00 0.00
0.00 0.00 0.00 0.00 0.00 0.00 0.00 0.00 0.00 0.00 0.00 0.00 0.00 0.00 0.00 0.00 0.00 0.00 0.00 0.00 0.00 0.00 0.00 0.00 0.00 0.00 0.00 0.00 0.00 0.00 0.00 0.00 0.00 0.00 0.00 0.00 0.00 0.00 0.02 0.08 0.10 0.07 0.00 0.01 0.02 0.01 0.00 0.00 0.01
0.00 0.00 0.00 0.00 0.00 0.00 0.00 0.00 0.00 0.00 0.00 0.00 0.00 0.00 0.00 0.00 0.00 0.00 0.00 0.00 0.00 0.00 0.00 0.00 0.00 0.00 0.00 0.00 0.00 0.00 0.00 0.00 0.00 0.00 0.00 0.00 0.00 0.01 0.02 0.07 0.04 0.03 0.00 0.00 0.01 0.00 0.00 0.00 0.02
0.00 0.00 0.00 0.00 0.00 0.00 0.00 0.00 0.00 0.00 0.00 0.00 0.00 0.00 0.00 0.00 0.00 0.00 0.00 0.00 0.00 0.00 0.00 0.00 0.00 0.00 0.00 0.00 0.00 0.00 0.00 0.00 0.00 0.00 0.00 0.00 0.00 0.02 0.04 0.02 0.02 0.00 0.00 0.00 0.00 0.00 0.00 0.00 0.01
0.00 0.00 0.00 0.00 0.00 0.00 0.00 0.00 0.00 0.00 0.00 0.00 0.00 0.00 0.00 0.00 0.00 0.00 0.00 0.00 0.00 0.00 0.00 0.00 0.00 0.00 0.00 0.00 0.00 0.00 0.00 0.00 0.00 0.00 0.01 0.00 0.02 0.05 0.06 0.04 0.02 0.00 0.00 0.01 0.02 0.00 0.01 0.01 0.01
0.00 0.00 0.00 0.00 0.00 0.00 0.00 0.00 0.00 0.00 0.00 0.00 0.00 0.00 0.00 0.00 0.00 0.00 0.00 0.00 0.00 0.00 0.00 0.00 0.00 0.00 0.00 0.00 0.00 0.00 0.00 0.00 0.00 0.00 0.00 0.00 0.05 0.09 0.08 0.05 0.05 0.03 0.02 0.03 0.04 0.01 0.01 0.01 0.00
0.00 0.00 0.00 0.00 0.00 0.00 0.00 0.00 0.00 0.00 0.00 0.00 0.00 0.00 0.00 0.00 0.00 0.00 0.00 0.00 0.00 0.00 0.00 0.00 0.00 0.00 0.00 0.00 0.00 0.00 0.00 0.00 0.00 0.00 0.00 0.00 0.02 0.08 0.10 0.09 0.07 0.06 0.04 0.04 0.02 0.01 0.00 0.00 0.00
0.00 0.00 0.00 0.00 0.00 0.00 0.00 0.00 0.00 0.00 0.00 0.00 0.00 0.00 0.00 0.00 0.00 0.00 0.00 0.00 0.00 0.00 0.00 0.00 0.00 0.00 0.00 0.00 0.00 0.00 0.00 0.00 0.00 0.00 0.01 0.00 0.02 0.04 0.06 0.04 0.04 0.04 0.03 0.02 0.00 0.00 0.00 0.00 0.00
0.00 0.00 0.00 0.00 0.00 0.00 0.00 0.00 0.00 0.00 0.00 0.00 0.00 0.00 0.00 0.00 0.00 0.00 0.00 0.00 0.00 0.00 0.00 0.00 0.00 0.00 0.00 0.00 0.00 0.00 0.00 0.00 0.00 0.00 0.00 0.00 0.00 0.00 0.01 0.01 0.01 0.01 0.00 0.00 0.00 0.00 0.00 0.00 0.00
0.00 0.00 0.00 0.00 0.00 0.00 0.00 0.00 0.00 0.00 0.00 0.00 0.00 0.00 0.00 0.00 0.00 0.00 0.00 0.00 0.00 0.00 0.00 0.00 0.00 0.00 0.00 0.00 0.00 0.00 0.00 0.00 0.00 0.00 0.00 0.00 0.00 0.00 0.00 0.00 0.00 0.00 0.00 0.00 0.00 0.00 0.00 0.00 0.00
0.00 0.00 0.00 0.00 0.00 0.00 0.00 0.00 0.00 0.00 0.00 0.00 0.00 0.00 0.00 0.00 0.00 0.00 0.00 0.00 0.00 0.00 0.00 0.00 0.00 0.00 0.00 0.00 0.00 0.00 0.00 0.00 0.00 0.00 0.00 0.00 0.00 0.00 0.00 0.00 0.00 0.00 0.00 0.00 0.00 0.00 0.00 0.00 0.00
0.00 0.00 0.00 0.00 0.00 0.00 0.00 0.00 0.00 0.00 0.00 0.00 0.00 0.00 0.00 0.00 0.00 0.00 0.00 0.00 0.00 0.00 0.00 0.00 0.00 0.00 0.00 0.00 0.00 0.00 0.00 0.00 0.00 0.00 0.00 0.00 0.00 0.00 0.00 0.00 0.00 0.00 0.00 0.00 0.00 0.00 0.00 0.00 0.00
MSLP
1013.16 1013.10 1013.58 1013.67 1015.05 1015.06 1014.54 1013.91 1012.86 1012.49 1012.56 1012.49 1012.46 1012.60 1013.61 1014.77 1015.29 1016.36 1016.05 1015.79 1015.53 1015.07 1014.56 1014.52 1014.32 1013.89 1013.46 1013.08 1013.04 1013.09 1013.22 1013.23 1013.27 1013.38 1013.48 1013.54 1013.59 1013.73 1013.83 1014.16 1014.20 1014.09 1014.16 1014.33 1014.38 1014.78 1015.23 1015.39 1015.61
1013.44 1013.28 1013.89 1014.60 1015.24 1015.36 1014.82 1013.90 1013.25 1012.77 1012.68 1012.69 1013.02 1013.60 1014.44 1015.65 1015.86 1016.18 1016.19 1015.81 1015.56 1015.25 1014.85 1014.71 1014.57 1014.23 1013.86 1013.31 1013.15 1013.11 1013.04 1013.04 1013.12 1013.20 1013.29 1013.48 1013.55 1013.64 1013.76 1013.91 1014.19 1014.22 1014.22 1014.24 1014.35 1014.78 1015.11 1015.68 1015.96
1013.53 1013.76 1014.78 1015.06 1015.48 1015.19 1014.71 1013.97 1013.47 1013.09 1013.16 1013.19 1013.84 1014.62 1015.58 1016.50 1016.46 1016.52 1016.33 1015.93 1015.55 1015.29 1015.20 1015.04 1014.73 1014.50 1014.24 1013.87 1013.48 1013.24 1013.14 1012.98 1012.90 1013.03 1013.11 1013.24 1013.50 1013.61 1013.66 1013.91 1014.02 1014.26 1014.33 1014.27 1014.43 1014.67 1015.09 1015.76 1016.05
1014.02 1014.39 1015.21 1014.92 1015.13 1014.57 1014.15 1013.95 1013.62 1013.52 1013.55 1013.68 1014.32 1015.68 1016.49 1016.79 1016.61 1016.65 1016.26 1015.93 1015.88 1015.56 1015.48 1015.23 1014.96 1014.64 1014.45 1014.17 1013.98 1013.51 1013.05 1013.04 1012.96 1012.82 1012.85 1012.97 1013.17 1013.32 1013.62 1013.80 1013.97 1014.12 1014.28 1014.38 1014.49 1014.63 1015.23 1015.59 1016.04
1014.22 1014.89 1015.46 1015.34 1015.01 1014.52 1014.27 1013.96 1013.78 1013.92 1014.19 1014.53 1014.68 1015.98 1016.72 1016.83 1016.69 1016.55 1016.25 1016.13 1016.17 1016.08 1015.77 1015.49 1015.20 1014.85 1014.60 1014.31 1014.03 1013.78 1013.37 1012.99 1012.69 1012.53 1012.57 1012.57 1012.74 1013.03 1013.28 1013.62 1013.82 1013.94 1014.00 1014.17 1014.51 1014.80 1015.31 1015.61 1016.02
1014.63 1015.22 1015.76 1015.93 1015.00 1014.56 1014.32 1014.14 1014.09 1014.39 1014.69 1014.91 1015.30 1016.23 1016.96 1016.97 1016.90 1016.59 1016.42 1016.42 1016.31 1016.21 1015.92 1015.70 1015.45 1015.16 1014.89 1014.60 1014.21 1013.82 1013.54 1013.32 1013.09 1012.31 1012.07 1012.14 1012.41 1012.37 1012.81 1013.13 1013.43 1013.74 1013.87 1014.10 1014.33 1014.76 1015.31 1015.67 1015.98
1014.82 1015.54 1015.83 1015.40 1014.94 1014.66 1014.35 1014.33 1014.53 1014.77 1014.93 1015.13 1015.33 1016.44 1017.05 1017.01 1016.72 1016.57 1016.48 1016.45 1016.33 1016.23 1016.12 1015.92 1015.60 1015.31 1015.01 1014.64 1014.20 1013.80 1013.60 1013.33 1012.95 1012.60 1012.19 1011.71 1011.61 1011.87 1012.20 1012.48 1013.12 1013.32 1013.57 1013.90 1014.26 1014.66 1015.35 1015.74 1015.91
1014.84 1015.80 1015.84 1015.06 1014.82 1014.57 1014.42 1014.53 1014.78 1014.88 1015.07 1015.15 1015.32 1016.21 1016.92 1016.85 1016.82 1016.66 1016.57 1016.65 1016.65 1016.47 1016.20 1015.92 1015.62 1015.29 1014.97 1014.63 1014.13 1013.83 1013.42 1013.00 1012.73 1012.75 1012.38 1011.57 1011.48 1011.30 1011.49 1012.05 1012.56 1012.98 1013.29 1013.51 1014.01 1014.49 1015.24 1015.67 1015.99
1014.87 1015.95 1015.93 1015.11 1014.80 1014.62 1014.63 1014.86 1014.92 1014.90 1015.15 1015.47 1015.84 1016.26 1016.66 1016.79 1016.74 1016.74 1016.91 1017.03 1016.92 1016.68 1016.44 1015.96 1015.61 1015.24 1014.83 1014.52 1014.17 1013.87 1013.29 1012.82 1012.47 1012.17 1012.05 1011.76 1011.26 1011.32 1011.50 1011.73 1012.03 1012.47 1012.89 1013.44 1013.74 1014.25 1014.96 1015.45 1015.92
1015.25 1015.98 1015.35 1015.13 1014.92 1014.84 1014.86 1014.98 1015.15 1015.38 1015.61 1015.96 1016.26 1016.47 1016.54 1016.63 1016.81 1017.09 1017.33 1017.43 1017.25 1016.90 1016.48 1016.18 1015.74 1015.20 1014.78 1014.37 1014.10 1013.82 1013.36 1012.82 1012.35 1012.16 1012.23 1011.74 1010.88 1010.96 1011.09 1011.59 1011.95 1012.25 1012.85 1013.17 1013.62 1014.05 1014.75 1015.39 1015.82
1015.19 1015.53 1015.31 1015.26 1015.13 1015.07 1015.17 1015.29 1015.34 1015.58 1015.84 1015.99 1016.27 1016.43 1016.50 1016.71 1016.98 1017.28 1017.47 1017.48 1017.30 1017.03 1016.69 1016.17 1015.67 1015.10 1014.75 1014.21 1013.91 1013.68 1013.28 1012.81 1012.25 1011.80 1011.86 1011.73 1011.59 1010.96 1010.91 1011.10 1011.58 1012.16 1012.80 1013.26 1013.45 1014.07 1014.62 1015.30 1015.75
1015.33 1015.32 1015.23 1015.39 1015.38 1015.43 1015.52 1015.61 1015.63 1015.65 1015.56 1015.65 1016.02 1016.16 1016.44 1016.78 1017.04 1017.25 1017.34 1017.29 1017.09 1016.81 1016.29 1015.82 1015.58 1015.23 1014.64 1014.14 1013.82 1013.42 1013.12 1012.63 1012.18 1011.81 1011.65 1011.65 1011.14 1010.49 1009.91 1010.91 1011.28 1011.36 1012.40 1013.06 1013.47 1014.00 1014.47 1014.99 1015.46
1015.29 1015.37 1015.44 1015.50 1015.56 1015.60 1015.69 1015.81 1015.93 1015.54 1015.52 1015.69 1015.84 1016.11 1016.46 1016.78 1016.95 1017.07 1017.01 1016.91 1016.83 1016.38 1015.97 1015.62 1015.29 1014.90 1014.49 1014.22 1013.65 1013.25 1012.73 1012.30 1011.90 1011.69 1011.49 1011.51 1011.24 1010.56 1009.63 1010.68 1011.12 1010.97 1012.03 1012.65 1013.26 1013.85 1014.35 1014.97 1015.24
1015.39 1015.46 1015.61 1015.62 1015.66 1015.73 1015.93 1016.03 1016.07 1015.21 1015.43 1015.76 1015.93 1016.23 1016.43 1016.62 1016.76 1016.78 1016.82 1016.79 1016.47 1016.04 1015.86 1015.35 1015.03 1014.68 1014.28 1013.94 1013.50 1012.98 1012.35 1011.93 1011.53 1011.34 1011.22 1011.16 1011.18 1010.75 1010.12 1009.83 1010.77 1010.99 1011.66 1012.33 1012.88 1013.54 1014.43 1014.89 1015.12
1015.56 1015.77 1015.77 1015.63 1015.75 1015.96 1016.12 1015.95 1015.61 1015.33 1015.62 1015.91 1016.05 1016.21 1016.35 1016.41 1016.47 1016.51 1016.52 1016.50 1016.27 1016.05 1015.75 1015.40 1014.76 1014.22 1013.84 1013.54 1012.99 1012.44 1011.57 1011.10 1010.89 1010.76 1010.64 1010.66 1010.69 1010.59 1010.02 1009.43 1009.39 1010.82 1011.38 1011.99 1012.69 1013.50 1014.27 1014.78 1015.07
1016.02 1016.15 1016.13 1015.66 1015.81 1016.07 1016.46 1015.60 1014.92 1015.21 1015.75 1016.05 1016.06 1016.25 1016.26 1016.13 1016.18 1016.26 1016.29 1016.26 1016.13 1016.08 1015.78 1015.27 1014.58 1014.04 1013.48 1013.03 1012.47 1011.83 1011.25 1010.85 1010.47 1010.03 1009.86 1009.96 1010.10 1010.02 1009.83 1009.24 1008.49 1009.29 1010.96 1011.69 1012.54 1013.53 1014.26 1014.82 1015.17
1016.67 1016.61 1016.40 1015.85 1015.83 1016.32 1016.84 1015.80 1015.08 1015.34 1015.86 1016.04 1016.08 1016.10 1016.22 1016.16 1016.18 1016.24 1016.32 1016.31 1016.13 1015.97 1015.66 1015.11 1014.51 1013.79 1013.09 1012.51 1011.98 1011.33 1010.80 1010.37 1009.94 1009.51 1009.31 1009.24 1009.38 1009.51 1009.55 1008.72 1008.45 1009.24 1010.44 1011.70 1012.50 1013.43 1013.79 1014.77 1015.22
1016.70 1016.76 1016.49 1016.34 1016.31 1016.54 1016.72 1015.49 1015.39 1015.46 1015.78 1015.76 1015.83 1015.89 1016.03 1016.16 1016.15 1016.26 1016.28 1016.27 1016.16 1015.92 1015.49 1015.00 1014.22 1013.62 1013.06 1012.26 1011.51 1010.80 1010.17 1009.64 1009.27 1009.15 1008.93 1008.79 1008.93 1008.99 1009.15 1008.60 1008.54 1008.69 1010.15 1011.53 1012.24 1013.09 1013.77 1014.44 1014.94
1016.24 1016.56 1016.75 1016.51 1016.63 1016.92 1016.52 1015.77 1014.55 1014.88 1015.10 1015.30 1015.62 1015.68 1015.79 1016.03 1016.06 1016.24 1016.33 1016.37 1016.20 1015.93 1015.43 1014.72 1014.20 1013.50 1012.86 1012.08 1011.26 1010.42 1009.61 1009.17 1008.78 1008.63 1008.45 1008.32 1008.42 1008.62 1008.73 1008.57 1008.94 1009.89 1010.39 1010.88 1012.05 1012.80 1013.48 1014.60 1015.04
1016.37 1016.86 1017.10 1016.93 1016.99 1017.30 1016.76 1015.27 1014.13 1013.91 1013.97 1014.22 1014.62 1015.22 1015.57 1015.75 1016.06 1016.25 1016.39 1016.47 1016.38 1016.03 1015.45 1014.75 1014.13 1013.49 1012.75 1012.00 1011.05 1010.23 1009.31 1008.77 1008.45 1008.23 1008.11 1007.82 1007.98 1008.25 1008.35 1008.30 1008.97 1009.47 1009.82 1010.65 1011.76 1012.65 1013.06 1014.21 1014.57
1016.59 1017.21 1017.65 1017.87 1017.59 1017.47 1017.54 1015.46 1014.33 1013.90 1013.70 1013.85 1014.22 1014.74 1015.26 1015.55 1016.01 1016.23 1016.42 1016.63 1016.42 1016.08 1015.66 1014.80 1014.08 1013.49 1012.84 1011.92 1010.74 1009.57 1008.58 1008.49 1008.17 1007.79 1007.62 1007.36 1007.60 1007.76 1007.95 1008.06 1008.82 1009.52 1010.17 1010.72 1011.74 1012.30 1012.71 1013.14 1014.33
1016.88 1017.12 1017.69 1018.21 1018.74 1019.16 1018.76 1018.08 1015.41 1014.72 1014.24 1014.15 1014.34 1014.86 1015.21 1015.57 1015.96 1016.21 1016.47 1016.66 1016.60 1016.31 1015.79 1014.82 1014.06 1013.41 1012.73 1011.91 1010.90 1009.82 1008.83 1007.95 1007.32 1007.12 1006.82 1006.96 1007.21 1007.43 1007.53 1008.17 1008.74 1009.18 1009.82 1010.74 1011.69 1012.09 1012.49 1012.84 1013.98
1016.93 1017.40 1017.92 1018.59 1019.40 1020.07 1019.82 1020.00 1015.39 1015.06 1014.48 1014.21 1014.40 1014.92 1015.23 1015.64 1015.98 1016.21 1016.52 1016.78 1016.61 1016.37 1015.96 1015.02 1014.07 1013.62 1012.87 1012.17 1011.32 1010.30 1009.14 1008.12 1006.99 1006.53 1006.57 1006.94 1007.06 1007.26 1007.74 1008.38 1008.81 1009.64 1010.32 1011.02 1011.44 1012.00 1012.40 1012.90 1013.74
1017.11 1017.82 1018.46 1019.28 1020.13 1020.58 1020.00 1019.92 1016.14 1015.02 1014.14 1013.89 1014.14 1014.71 1015.27 1015.78 1016.02 1016.14 1016.57 1016.84 1016.75 1016.37 1015.93 1015.13 1014.37 1013.90 1013.22 1012.54 1011.57 1010.96 1009.85 1008.85 1007.85 1007.27 1007.15 1007.25 1007.36 1007.59 1008.19 1008.66 1009.13 1009.81 1010.54 1011.05 1011.28 1011.53 1012.28 1012.94 1013.81
1017.43 1018.22 1019.27 1020.17 1020.62 1020.39 1019.76 1019.66 1015.10 1013.78 1013.45 1013.36 1013.88 1014.67 1015.42 1015.79 1016.04 1016.13 1016.67 1016.98 1016.89 1016.66 1016.23 1015.49 1014.73 1014.24 1013.64 1012.96 1012.08 1011.54 1010.69 1009.77 1009.02 1008.45 1008.25 1008.27 1008.48 1008.77 1008.82 1009.32 1009.61 1010.04 1010.59 1011.00 1011.35 1012.25 1012.95 1013.58 1014.48
1017.64 1018.06 1018.90 1019.77 1020.49 1019.99 1019.38 1017.61 1013.61 1012.91 1012.74 1012.95 1013.59 1014.60 1015.55 1016.12 1016.10 1016.25 1016.56 1016.98 1016.95 1016.79 1016.48 1015.92 1015.14 1014.67 1014.13 1013.43 1012.81 1012.20 1011.56 1010.84 1010.04 1009.63 1009.51 1009.59 1009.77 1009.92 1009.83 1010.21 1010.63 1010.94 1011.51 1011.49 1012.21 1012.68 1013.55 1014.52 1015.37
1017.72 1018.09 1018.29 1019.29 1020.60 1019.89 1017.55 1015.28 1012.74 1012.63 1012.89 1013.36 1014.00 1015.07 1015.82 1016.18 1016.35 1016.40 1016.50 1016.76 1017.04 1016.92 1016.75 1016.31 1015.64 1015.23 1014.67 1014.15 1013.51 1012.85 1012.50 1011.92 1011.26 1010.81 1010.62 1010.78 1010.75 1010.29 1011.08 1011.48 1011.66 1012.13 1012.55 1012.81 1013.36 1014.75 1014.67 1015.55 1016.11
1017.36 1017.80 1018.48 1019.19 1019.85 1019.16 1016.65 1015.16 1013.01 1012.42 1012.69 1013.37 1014.21 1014.88 1015.70 1016.24 1016.61 1016.67 1016.62 1016.57 1017.06 1017.00 1016.90 1016.57 1016.09 1015.73 1015.33 1014.75 1014.27 1013.89 1013.60 1013.25 1012.67 1012.07 1011.85 1011.88 1012.12 1012.06 1011.77 1012.58 1012.87 1013.41 1013.69 1014.40 1014.41 1015.85 1016.46 1016.86 1017.40
1017.81 1017.84 1018.25 1018.49 1018.63 1018.20 1017.07 1013.36 1011.25 1011.33 1011.73 1012.57 1013.31 1014.08 1014.99 1015.90 1016.39 1016.74 1016.87 1016.57 1016.96 1017.09 1017.04 1016.79 1016.40 1016.21 1015.83 1015.40 1014.94 1014.56 1014.14 1014.14 1013.99 1013.26 1013.32 1013.45 1013.31 1013.51 1013.62 1013.83 1014.03 1014.57 1015.05 1015.35 1015.92 1016.99 1017.61 1018.08 1018.61
1016.97 1017.10 1017.37 1017.80 1018.20 1017.80 1016.90 1012.85 1010.35 1010.68 1011.08 1011.52 1012.29 1013.14 1014.17 1015.17 1015.83 1016.41 1016.76 1016.78 1016.95 1017.20 1017.24 1017.02 1016.71 1016.64 1016.27 1015.98 1015.67 1015.62 1015.30 1014.87 1014.85 1014.97 1014.88 1014.56 1014.43 1014.78 1014.84 1014.98 1015.19 1015.66 1016.13 1016.93 1017.33 1017.99 1018.62 1018.83 1019.73
Thickness
5724 5725 5720 5715 5686 5678 5681 5694 5700 5700 5698 5706 5707 5706 5692 5679 5675 5666 5675 5678 5679 5681 5682 5680 5680 5682 5684 5686 5685 5683 5679 5677 5676 5674 5672 5671 5671 5669 5669 5668 5668 5670 5672 5672 5673 5672 5671 5672 5672
5722 5723 5713 5696 5674 5667 5673 5693 5695 5700 5703 5706 5700 5696 5684 5669 5675 5673 5672 5676 5676 5676 5677 5676 5675 5675 5677 5678 5677 5676 5674 5672 5670 5668 5666 5664 5663 5664 5663 5662 5662 5663 5664 5667 5668 5667 5666 5664 5664
5719 5716 5698 5684 5665 5669 5674 5693 5696 5700 5698 5699 5693 5685 5676 5666 5670 5669 5671 5673 5673 5673 5671 5669 5669 5668 5667 5667 5666 5665 5664 5663 5663 5660 5659 5658 5655 5656 5656 5655 5656 5656 5657 5660 5662 5663 5661 5659 5658
5711 5706 5692 5682 5681 5690 5686 5690 5695 5694 5695 5693 5689 5669 5667 5667 5668 5667 5668 5668 5667 5667 5664 5662 5660 5660 5657 5656 5655 5655 5654 5652 5651 5651 5651 5651 5650 5650 5648 5648 5648 5649 5651 5652 5654 5656 5655 5655 5653
5707 5694 5677 5677 5682 5685 5686 5690 5692 5689 5684 5680 5684 5668 5661 5664 5667 5666 5666 5664 5661 5658 5656 5653 5651 5650 5648 5646 5645 5645 5645 5646 5645 5645 5644 5645 5644 5642 5642 5642 5643 5643 5644 5646 5647 5648 5647 5648 5648
5695 5688 5671 5664 5676 5681 5684 5688 5688 5681 5677 5678 5676 5665 5659 5664 5661 5661 5660 5657 5654 5652 5650 5647 5642 5638 5636 5634 5634 5635 5634 5633 5633 5636 5639 5639 5638 5641 5638 5638 5638 5638 5640 5639 5641 5641 5640 5641 5642
5692 5677 5669 5674 5674 5678 5683 5687 5681 5676 5673 5673 5676 5662 5658 5660 5661 5658 5656 5652 5649 5645 5641 5638 5634 5630 5625 5624 5625 5624 5621 5619 5622 5626 5627 5632 5636 5636 5636 5637 5633 5635 5635 5634 5633 5635 5633 5633 5636
5687 5675 5676 5681 5672 5678 5682 5682 5678 5676 5671 5676 5675 5660 5655 5659 5657 5655 5652 5647 5642 5638 5633 5629 5625 5621 5618 5616 5614 5611 5611 5611 5613 5614 5615 5622 5626 5633 5635 5634 5632 5632 5631 5632 5629 5629 5627 5628 5629
5689 5665 5661 5679 5679 5678 5680 5674 5675 5678 5673 5671 5667 5661 5659 5656 5653 5649 5643 5637 5633 5629 5624 5620 5616 5610 5609 5605 5601 5599 5603 5605 5606 5610 5609 5611 5617 5620 5625 5628 5628 5628 5628 5626 5626 5625 5623 5623 5623
5674 5658 5673 5677 5677 5675 5676 5674 5671 5669 5666 5662 5661 5659 5657 5653 5646 5640 5634 5627 5624 5619 5614 5609 5602 5600 5599 5595 5592 5590 5593 5597 5601 5601 5600 5603 5611 5614 5618 5618 5620 5622 5622 5622 5621 5621 5618 5618 5619
5676 5665 5675 5675 5675 5675 5672 5670 5671 5664 5661 5659 5657 5655 5655 5649 5642 5635 5630 5626 5620 5613 5607 5602 5597 5594 5590 5587 5585 5583 5583 5585 5591 5596 5594 5595 5597 5605 5609 5612 5614 5614 5614 5613 5616 5613 5613 5612 5613
5670 5674 5675 5671 5671 5670 5667 5665 5664 5662 5664 5662 5658 5657 5652 5645 5639 5633 5627 5621 5614 5607 5602 5595 5587 5584 5582 5577 5576 5575 5574 5575 5580 5585 5586 5588 5593 5599 5609 5605 5607 5612 5609 5608 5609 5609 5608 5607 5607
5671 5671 5669 5668 5667 5666 5665 5661 5658 5660 5662 5660 5659 5655 5648 5641 5637 5631 5626 5620 5611 5604 5594 5585 5579 5577 5571 5566 5565 5565 5568 5569 5573 5576 5578 5578 5582 5588 5597 5589 5600 5607 5604 5604 5603 5603 5602 5601 5602
5670 5669 5665 5665 5664 5663 5659 5657 5656 5665 5659 5657 5656 5649 5643 5640 5635 5630 5622 5614 5606 5599 5589 5580 5573 5569 5562 5556 5554 5555 5558 5561 5564 5568 5570 5570 5571 5580 5591 5599 5595 5600 5601 5596 5599 5598 5595 5595 5596
5666 5661 5661 5660 5661 5658 5655 5653 5653 5660 5655 5654 5652 5645 5641 5637 5633 5627 5621 5612 5602 5591 5581 5571 5569 5562 5552 5546 5546 5547 5552 5555 5558 5560 5562 5563 5566 5572 5582 5591 5603 5596 5597 5595 5593 5591 5589 5590 5591
5656 5654 5647 5659 5656 5655 5651 5651 5666 5657 5651 5650 5649 5640 5638 5638 5633 5627 5620 5610 5598 5586 5575 5567 5562 5551 5545 5542 5541 5541 5545 5547 5549 5552 5556 5558 5560 5567 5575 5587 5591 5601 5592 5592 5591 5585 5584 5583 5583
5643 5641 5643 5651 5652 5650 5642 5647 5660 5653 5647 5647 5643 5639 5635 5632 5630 5623 5615 5604 5592 5580 5569 5561 5551 5543 5540 5539 5537 5538 5539 5539 5540 5544 5548 5552 5555 5561 5569 5584 5590 5592 5591 5586 5585 5579 5580 5575 5577
5636 5636 5643 5642 5647 5643 5638 5648 5653 5650 5644 5645 5642 5638 5632 5629 5627 5618 5609 5598 5586 5574 5562 5554 5546 5538 5534 5533 5533 5532 5532 5531 5530 5532 5538 5544 5549 5557 5564 5577 5586 5583 5584 5577 5578 5577 5574 5573 5574
5649 5644 5638 5642 5642 5637 5636 5643 5658 5653 5647 5642 5637 5635 5630 5626 5622 5614 5605 5592 5580 5568 5557 5551 5541 5535 5531 5529 5528 5525 5521 5517 5517 5521 5528 5535 5543 5550 5559 5568 5572 5570 5572 5577 5572 5571 5570 5567 5568
5641 5632 5628 5633 5637 5634 5636 5649 5661 5659 5656 5653 5647 5636 5629 5627 5619 5611 5601 5587 5574 5563 5554 5546 5536 5531 5527 5524 5520 5515 5507 5500 5502 5510 5520 5530 5536 5545 5555 5563 5564 5562 5571 5573 5569 5567 5570 5565 5567
5632 5619 5609 5623 5626 5630 5622 5639 5650 5658 5659 5651 5647 5641 5633 5625 5617 5608 5598 5583 5570 5560 5549 5544 5535 5528 5523 5521 5518 5513 5505 5492 5492 5503 5516 5528 5534 5544 5554 5562 5563 5564 5565 5568 5564 5565 5569 5571 5564
5628 5627 5620 5621 5613 5601 5614 5609 5618 5642 5648 5649 5644 5634 5627 5619 5614 5604 5594 5581 5568 5557 5547 5540 5533 5529 5524 5519 5516 5511 5508 5505 5508 5515 5525 5531 5537 5545 5556 5559 5563 5567 5569 5567 5563 5568 5569 5569 5564
5626 5621 5619 5615 5607 5603 5597 5570 5626 5630 5641 5643 5638 5631 5623 5614 5608 5602 5592 5580 5568 5556 5545 5538 5533 5527 5522 5518 5515 5512 5513 5515 5524 5530 5534 5534 5541 5550 5556 5558 5563 5563 5563 5563 5565 5566 5567 5566 5564
5617 5614 5607 5595 5588 5567 5578 5578 5619 5607 5640 5647 5639 5631 5618 5609 5604 5600 5590 5578 5565 5555 5545 5537 5532 5526 5522 5517 5516 5513 5515 5521 5528 5534 5537 5538 5543 5550 5554 5557 5561 5561 5561 5564 5567 5569 5567 5565 5560
5612 5604 5579 5578 5568 5593 5591 5581 5625 5642 5645 5646 5637 5625 5612 5607 5600 5597 5587 5575 5564 5554 5544 5537 5532 5525 5522 5519 5517 5514 5515 5521 5528 5532 5536 5537 5540 5544 5551 5553 5556 5558 5560 5563 5566 5562 5559 5558 5554
5599 5602 5589 5590 5588 5598 5589 5594 5634 5644 5643 5645 5633 5618 5607 5600 5598 5594 5586 5574 5564 5555 5546 5538 5532 5526 5521 5521 5518 5518 5516 5519 5525 5529 5531 5533 5535 5538 5545 5547 5548 5547 5552 5561 5558 5556 5551 5546 5542
5598 5592 5597 5577 5526 5559 5602 5618 5639 5639 5637 5628 5619 5609 5601 5597 5592 5590 5584 5576 5565 5555 5546 5538 5533 5525 5521 5520 5520 5521 5520 5521 5524 5526 5527 5527 5531 5535 5534 5538 5541 5542 5542 5545 5544 5535 5540 5535 5533
5594 5592 5581 5552 5562 5573 5605 5613 5624 5634 5628 5621 5612 5605 5599 5594 5587 5585 5581 5576 5565 5556 5547 5540 5534 5526 5521 5520 5519 5519 5518 5519 5519 5522 5523 5524 5526 5529 5535 5532 5534 5532 5534 5533 5536 5528 5525 5522 5520
5574 5578 5580 5576 5571 5586 5585 5621 5634 5642 5635 5624 5616 5612 5602 5592 5586 5580 5576 5575 5566 5557 5548 5542 5538 5529 5521 5518 5518 5518 5520 5517 5516 5519 5520 5519 5521 5523 5524 5526 5529 5528 5526 5526 5524 5516 5512 5510 5508
5578 5581 5579 5580 5574 5560 5576 5612 5643 5637 5632 5625 5621 5617 5605 5594 5587 5579 5574 5570 5565 5558 5550 5543 5539 5532 5523 5519 5517 5512 5512 5515 5515 5514 5515 5519 5521 5519 5519 5522 5522 5520 5518 5513 5511 5508 5505 5504 5496